User: anonymous   Login
Location: Unspecified
(0.0000°N, 0.0000°E)
Time: 15:59:33
(UTC+00:00)
Language:

KICKSAT - Orbit

View from above orbital plane
View from above orbital plane
View from above satellite
View from above satellite

Ground track
Ground track

The orbit data is extracted from the following two-line orbital elements,

1 39685U 14022F   14133.79926973  .10230793  12532-4  76634-3 0  9995
2 39685 051.6478 260.9431 0011364 321.6786 038.9487 16.39478651  3997
Epoch (UTC): 13 May 2014 19:10:56
Eccentricity: 0.0011364
inclination: 51.6478°
perigee height: 160 km
apogee height: 174 km
right ascension of ascending node: 260.9431°
argument of perigee: 321.6786°
revolutions per day: 16.39478651
mean anomaly at epoch: 38.9487°
orbit number at epoch: 399

The dashed part of the orbit path shows where the satellite is in the earth's shadow,  

DLR